Overview Statistics Trail Chart Weather Telemetry Raw packets
 

This is the latest recevied weather packets stored in our database for station/object MeshWX-3. If no packets are shown the sender has not sent any weather packets the latest 10 day(s).

<< 1 2 3 4 5 6 7 >>
Time Temp. Humidity Pressure Rain* Wind** Luminosity Snow
1788504777 22.78° C 40% 977.5 hPa - - - -
1788502803 22.78° C 40% 977.5 hPa - - - -
1788502734 22.22° C 41% 977.3 hPa - - - -
1788501591 22.22° C 41% 977.3 hPa - - - -
1788500823 22.22° C 41% 977.3 hPa - - - -
1788500754 21.11° C 41% 976.8 hPa - - - -
1788498843 21.11° C 41% 976.8 hPa - - - -
1788498774 20.56° C 41% 977.1 hPa - - - -
1788496863 20.56° C 41% 977.1 hPa - - - -
1788496793 19.44° C 42% 976.8 hPa - - - -
1788494882 19.44° C 42% 976.8 hPa - - - -
1788494813 20° C 41% 976.5 hPa - - - -
1788492842 20° C 41% 976.5 hPa - - - -
1788492773 20.56° C 39% 976.3 hPa - - - -
1788490865 20.56° C 39% 976.3 hPa - - - -
1788490793 21.11° C 39% 976.2 hPa - - - -
1788488882 21.11° C 39% 976.2 hPa - - - -
1788488813 21.67° C 38% 976.1 hPa - - - -
1788486963 21.67° C 38% 976.1 hPa - - - -
1788486893 22.22° C 37% 975.9 hPa - - - -
1788485042 22.22° C 37% 975.9 hPa - - - -
1788484972 22.78° C 36% 975.9 hPa - - - -
1788483001 22.78° C 36% 975.9 hPa - - - -
1788482934 22.78° C 37% 975.8 hPa - - - -
1788481021 22.78° C 37% 975.8 hPa - - - -

* Rain since midnight (hover to see other rain measurements)
** Current wind speed in m/s (hover to see current wind gust speed)